hit tracker

Jackpot

Texas Poker Multi Jackpot System

Kini Telah hadir Jackpot SUPER ROYAL FLUSH

Kini Telah hadir Jackpot 2000 (khusus table VIP keatas).

Ikutilah global jackpot yang tersedia di system kami, dengan system jackpot terbaru dan pertama di indonesia, anda dapat membeli jackpot dengan harga 100 rupiah saja dan menangkan hadiahnya hingga puluhan juta rupiah.

Jackpot bukanlah suatu keharusan untuk dibeli, namun kami memberikan suatu fitur tambahan untuk member tercinta dari www.qqpokeronline.co.

Terdapat tiga pilihan harga jackpot yang bisa anda beli yaitu :100,500,1000 dan 2000(khusus table VIP Keatas) rupiah.

Hadiah dari Multi jackpot system www.qqpokeronline.co

  1. full house x 10 harga jackpot yang anda beli.
      (contoh:anda membeli 1000 maka:1000 X10 = 10.000)
  2. four of kind x 250 harga jackpot yang anda beli
      (contoh:anda membeli 1000 maka:1000 X250 = 250.000)
  3. Straight flush x 1200
      (contoh:anda membeli 1000 maka:1000 X1200 = 1.200.000)
  4. Royal flush x 10000 harga jackpot yang anda beli
      (contoh:anda membeli 1000 maka:1000 X10000 = 10.000.000)
  5. SUPER ROYAL FLUSH x 30000 harga jackpot yang anda beli
      (contoh:anda membeli 1000 maka:1000 X30000 = 30.000.000)

Kondisi kartu

  1. full house adalah kondisi kartu dimana kartu anda dan kartu tengah dengan total 7 kartu bisa mendapatkan nilai 5 kartu dengan kombinasi 1 tris(three of kind) dan 1 pair, contoh 3 kartu 10 dan 2 kartu 5
  2. Four of kind adalah kondisi kartu dimana kartu anda dan kartu tengah dengan total 7 kartu bisa mendapatkan nilai 5 kartu dengan kombinasi 4 kartu yang sama jumlah dan 1 kartu apapun juga contoh anda mendapatkan 4 buah kartu angka 3 dan 1 kartu apapun.
  3. Staright flush adalah kondisi kartu dimana kartu anda dan kartu tengah dengan total 7 kartu bisa mendapatkan nilai 5 kartu dengan kombinasi seri / staright dengan kembang yang sama contoh : urutan kartu dari angka 5, 6, 7, 8 , 9 10 dengan kembang yg sama misalnya as hati
  4. Royal flush adalah kondisi kartu dimana kartu anda dan kartu tengah dengan total 7 kartu bisa mendapatkan nilai 5 kartu dengan kombinasi seri / staright dengan kembang yang sama tetapi kartu tersebut haruslah dimulai dari 10. contoh 10, Queen, Jack, King dan aces dengan kembang yang sama
  5. Super Royal flush adalah kondisi kartu dimana Kedua kartu anda digabung dengan 3 kartu pertama meja haruslah royal flush. contoh kartu anda 10,Queen kembang sama dan 3 kartu pertama meja adalah Jack, King dan aces dengan kembang yang sama

Demikian adalah penjelasan dari Multi Jackpot www.qqpokeronline.co terima kasih dan selamat bermain salam hoki dari kami

Texas Poker Jackpot Winner

TOP SUPER ROYAL FLUSH
No.TanggalNamaPriceWin
121/09 07:46AKABAD1Super Royal flush15,000,000
221/09 04:40DRAKULA999Super Royal flush6,000,000
320/09 23:08CIPAPOH98Super Royal flush15,000,000
420/09 21:04DKGAM05Super Royal flush30,000,000
520/09 19:13OGENK1Super Royal flush6,000,000
TOP ROYAL FLUSH
No.TanggalNamaPriceWin
121/09 17:19HOKKYMBAHRoyal flush2,000,000
221/09 16:14Y5V6JXEWA0Royal flush5,000,000
321/09 16:08KAMPRET_94Royal flush2,000,000
421/09 14:43MUZAM99Royal flush10,000,000
521/09 14:10AHNAFBRO09Royal flush5,000,000
TOP STRAIGHT FLUSH
No.TanggalNamaPriceWin
121/09 17:21DHJKUE46Straight Flush600,000
221/09 17:20CALIESTA89Straight Flush600,000
321/09 17:15LUMBA33Straight Flush240,000
421/09 17:15DEDE012Straight Flush120,000
521/09 17:08SAVA28Straight Flush600,000
LATEST JACKPOT
No.TanggalNamaPriceWin
121/09 17:26OKYY22_Full House5,000
221/09 17:26DARTOCSFull House2,000
321/09 17:26KINGSPOKFull House1,000
421/09 17:26HOLMSFull House2,000
521/09 17:26DEA0838Full House5,000
621/09 17:26VAMVIRE1Full House5,000
721/09 17:26C899Full House5,000
821/09 17:26M4T4DW4Full House10,000
921/09 17:26NIN7GYV18YFull House10,000
1021/09 17:25GOSI121Full House5,000
1121/09 17:25Q176X7888Full House5,000
1221/09 17:25VHALEGA16Full House5,000
1321/09 17:25MIZZ_HOKIFull House1,000
1421/09 17:25BODONG378Full House2,000
1521/09 17:25B4SS21Full House2,000
1621/09 17:25BOKER78Full House2,000
1721/09 17:25F540987BFull House5,000
1821/09 17:25FUL44Full House5,000
1921/09 17:25DJS147Full House5,000
2021/09 17:25IWI77Full House5,000
2121/09 17:25YAPALAFull House5,000
2221/09 17:25ALWIN28Full House5,000
2321/09 17:25IWEL12Full House1,000
2421/09 17:25USU9999Full House1,000
2521/09 17:25QBVLP0EN6QFull House2,000
2621/09 17:25FAADHILFull House2,000
2721/09 17:25AREZKENZOFull House1,000
2821/09 17:25TEMP078Full House1,000
2921/09 17:25QQ120Full House10,000
3021/09 17:25IZZATYFull House10,000
3121/09 17:25BENTOR46Full House2,000
3221/09 17:25YADAYFull House5,000
3321/09 17:25BE3DAFull House10,000
3421/09 17:25RAJAJUDIQFull House2,000
3521/09 17:25KHALIFAAAFull House5,000
3621/09 17:24SAPI07Full House10,000
3721/09 17:24SADDAM009Full House5,000
3821/09 17:24HF110783Full House5,000
3921/09 17:24CALADI77Full House20,000
4021/09 17:24BOS_JP44Full House1,000
4121/09 17:24D03HA88Full House5,000
4221/09 17:24B5211C59Full House1,000
4321/09 17:24TORIVALFull House1,000
4421/09 17:24G4RONG_777Full House2,000
4521/09 17:24SABUN19Full House5,000
4621/09 17:24DODY2RDFull House1,000
4721/09 17:24DEVOY39Full House2,000
4821/09 17:24TENGGIRI08Full House2,000
4921/09 17:24E1FE7BEEFull House2,000
5021/09 17:24MANOHAN99Full House2,000

Domino Multi Jackpot System

Ikutilah global jackpot yang tersedia di system kami, dengan system jackpot terbaru dan pertama di indonesia, anda dapat membeli jackpot dengan harga 100 rupiah saja dan menangkan hadiahnya hingga puluhan juta rupiah.

Jackpot bukanlah suatu keharusan untuk dibeli, namun kami memberikan suatu fitur tambahan untuk member tercinta dari www.qqpokeronline.co.

Terdapat tiga pilihan harga jackpot yang bisa anda beli yaitu :100,500 dan 1000 rupiah.

Hadiah dari Multi jackpot system www.qqpokeronline.co

  1. Murni Kecil x 50 harga jackpot yang anda beli.
      (contoh:anda membeli 1000 maka:1000 X 50 = 50.000)
  2. Murni Besar x 50 harga jackpot yang anda beli
      (contoh:anda membeli 1000 maka:1000 X 50 = 50.000)
  3. BALAK x 100 harga jackpot yang anda beli
      (contoh:anda membeli 1000 maka:1000 X 100 = 100.000)
  4. ENAM DEWA x 6666 harga jackpot yang anda beli
      (contoh:anda membeli 1000 maka:1000 X 6666 = 6.666.000)

Demikian adalah penjelasan dari Multi Jackpot www.qqpokeronline.co terima kasih dan selamat bermain salam hoki dari kami

Domino Jackpot Winner

TOP ENAM DEWA
No.TanggalNamaPriceWin
121/09 17:13RATTIH99murni enam3,333,000
221/09 16:18SEPTIAN94murni enam6,666,000
321/09 15:34JAMBU234murni enam6,666,000
421/09 15:32URANGPASAmurni enam3,333,000
521/09 14:50BM1658murni enam6,666,000
TOP BALAK
No.TanggalNamaPriceWin
121/09 17:23R_A_R_4balak50,000
221/09 17:22MURAEMAS01balak100,000
321/09 17:20GOD4499balak50,000
421/09 17:19ALEKBELEKbalak50,000
521/09 17:14DN4DDEYRAN77balak50,000
LATEST JACKPOT
No.TanggalNamaPriceWin
121/09 17:25BLUEDEVIL8murni kecil50,000
221/09 17:24NDANK27murni besar25,000
321/09 17:24WAKBD79murni besar25,000
421/09 17:24P41R777murni besar50,000
521/09 17:24ZVVS29DCA8murni besar50,000
621/09 17:24DARK404murni besar50,000
721/09 17:24ASHI13murni besar5,000
821/09 17:23R_A_R_4balak50,000
921/09 17:22CODET279murni besar50,000
1021/09 17:22MARGHIE17murni kecil5,000
1121/09 17:22MURAEMAS01balak100,000
1221/09 17:22PUTRAESAmurni besar25,000
1321/09 17:22SEGGAY02murni besar50,000
1421/09 17:22KUCURUK90murni besar5,000
1521/09 17:22PANDU2016murni besar25,000
1621/09 17:22IZZAL99murni kecil5,000
1721/09 17:20GOD4499balak50,000
1821/09 17:19ALEKBELEKbalak50,000
1921/09 17:19WQAV08GGC0murni kecil25,000
2021/09 17:18SSCUHWUURRmurni kecil50,000
2121/09 17:18RUHAN338murni kecil25,000
2221/09 17:18TALLI989murni kecil25,000
2321/09 17:16TUOKKIJE87murni kecil5,000
2421/09 17:15JOY133murni besar25,000
2521/09 17:14DEAPUTRImurni besar25,000
2621/09 17:14KAYLA458murni besar25,000
2721/09 17:14MENDOLAPmurni besar50,000
2821/09 17:14DN4DDEYRAN77balak50,000
2921/09 17:13KE2112balak100,000
3021/09 17:13BONGKAR59balak100,000
3121/09 17:13RATTIH99murni enam3,333,000
3221/09 17:13LULIK63balak10,000
3321/09 17:13MALINA18murni besar5,000
3421/09 17:12YAI0808murni besar50,000
3521/09 17:12GITAR083balak50,000
3621/09 17:11JHONS7777murni besar5,000
3721/09 17:11PAILON31murni kecil50,000
3821/09 17:11CECEPPESEKmurni kecil25,000
3921/09 17:10SAGLE22murni besar50,000
4021/09 17:10PUZYbalak50,000
4121/09 17:10BEEWHENmurni besar50,000
4221/09 17:09JAPIR21murni besar50,000
4321/09 17:09ALDOREYmurni kecil5,000
4421/09 17:08UNGKIIIIIbalak10,000
4521/09 17:08O33KNBSBMLmurni kecil5,000
4621/09 17:08WAWAN11X11murni besar25,000
4721/09 17:08ROCKNPOPmurni kecil25,000
4821/09 17:06UEDANmurni besar5,000
4921/09 17:05S4MPA0ERNAmurni besar50,000
5021/09 17:05LUXZ88murni kecil50,000

Ceme Multi Jackpot System

Jackpot dilihat dari gabungan kartu pemain dengan kartu bandar. Bandar harus membeli jackpot sebanyak jumlah player yang sedang duduk. Sebagai contoh bila terdapat 3 pemain duduk bermain, dan bandar memutuskan untuk membeli jackpot Rp 1.000, maka pada periode tersebut bandar akan membeli jackpot sebanyak 3xRp1.000 = Rp3.000.

Jackpot bukanlah suatu keharusan untuk dibeli, namun kami memberikan suatu fitur tambahan untuk member tercinta dari www.qqpokeronline.co.

Terdapat tiga pilihan harga jackpot yang bisa anda beli yaitu :100,500 dan 1000 rupiah.

Hadiah dari Multi jackpot system www.qqpokeronline.co

  1. Murni Kecil x 50 harga jackpot yang anda beli.
      (contoh:anda membeli 1000 maka:1000 X 50 = 50.000)
  2. Murni Besar x 50 harga jackpot yang anda beli
      (contoh:anda membeli 1000 maka:1000 X 50 = 50.000)
  3. BALAK x 200 harga jackpot yang anda beli
      (contoh:anda membeli 1000 maka:1000 X 200 = 200.000)
  4. ENAM DEWA x 6666 harga jackpot yang anda beli
      (contoh:anda membeli 1000 maka:1000 X 6666 = 6.666.000)

Demikian adalah penjelasan dari Multi Jackpot www.qqpokeronline.co terima kasih dan selamat bermain salam hoki dari kami

Ceme Jackpot Winner

TOP ENAM DEWA
No.TanggalNamaPriceWin
121/09 17:20YANTOANTOmurni enam6,666,000
221/09 17:20ARM4NDO420murni enam666,600
321/09 17:14JAYENG99murni enam6,666,000
421/09 17:14CBRZTPIDO6murni enam6,666,000
521/09 16:33YE2FXP7SZ7murni enam666,600
TOP BALAK
No.TanggalNamaPriceWin
121/09 17:25BLORONG_13balak200,000
221/09 17:25ARIPPEBbalak20,000
321/09 17:24RUFI123balak20,000
421/09 17:24BIONG67balak200,000
521/09 17:24MIUNOKbalak20,000
LATEST JACKPOT
No.TanggalNamaPriceWin
121/09 17:26C4WANK08murni kecil50,000
221/09 17:25MUARIF665murni kecil25,000
321/09 17:25REGSIYUmurni besar5,000
421/09 17:25V1998murni besar50,000
521/09 17:25SUCIMAmurni kecil25,000
621/09 17:25ASROMA83murni kecil50,000
721/09 17:25BECELENGmurni kecil25,000
821/09 17:25DBAY01murni kecil25,000
921/09 17:25JUBAH87murni besar50,000
1021/09 17:25BLORONG_13balak200,000
1121/09 17:25ARIPPEBbalak20,000
1221/09 17:24SULTNT41murni besar50,000
1321/09 17:24ASKONE9murni kecil25,000
1421/09 17:24OMIEEEmurni kecil5,000
1521/09 17:24HOOKY08murni besar50,000
1621/09 17:24CMD25198murni besar25,000
1721/09 17:24RUFI123balak20,000
1821/09 17:24DOP73ZU44Zmurni besar25,000
1921/09 17:24BIONG67balak200,000
2021/09 17:24PS89murni kecil50,000
2121/09 17:24BANDUH99murni kecil50,000
2221/09 17:24JHONS34murni besar50,000
2321/09 17:24IVANT95murni kecil50,000
2421/09 17:24SUKROSOUNDmurni kecil5,000
2521/09 17:24JEPIT9murni kecil50,000
2621/09 17:24DWBTRR64murni kecil50,000
2721/09 17:24ALAYALAY12murni kecil25,000
2821/09 17:24SEMEN212murni kecil25,000
2921/09 17:24VIQQLINZ08murni kecil5,000
3021/09 17:24MIUNOKbalak20,000
3121/09 17:24ASKONE9murni besar25,000
3221/09 17:24PANTHER123murni besar25,000
3321/09 17:23LX319MZ3V8balak20,000
3421/09 17:23PRAS099balak20,000
3521/09 17:23TENGU95murni besar5,000
3621/09 17:23GORDmurni kecil5,000
3721/09 17:23PS89murni kecil50,000
3821/09 17:23BANDUH99murni kecil50,000
3921/09 17:23KANTINSmurni kecil50,000
4021/09 17:23ASKONE9balak100,000
4121/09 17:23OMIEEEbalak20,000
4221/09 17:23UPILL00murni kecil5,000
4321/09 17:23CHOP3Tbalak200,000
4421/09 17:22AYLA_1103murni kecil50,000
4521/09 17:22DOMEH999murni kecil50,000
4621/09 17:22BUDILIN12murni besar50,000
4721/09 17:22AGOTONK123murni besar50,000
4821/09 17:22WATETQIUmurni besar50,000
4921/09 17:22RYD11murni besar50,000
5021/09 17:22PANTHER123murni besar25,000